Вернуться в каталог

STARLINK-1153

АктивенСвязьVLEO
NORAD 45080·PAYLOAD·🇺🇸 United States

Запущен Jan 29, 2020 с Cape Canaveral Space Force Station

Loading…

Ближайшие Пролёты (ближайшие 24 часа)

TLE

СвежийSource: CelesTrak SupGP

Эпоха: Sep 14, 2026, 13:25 UTC

1 45080C 20006AN  26257.55951389  .00051913  00000+0  10323-2 0  2578
2 45080  53.1527  90.2139 0003377 200.6450 259.4594 15.46326423    18

Отслеживайте STARLINK-1153 в реальном времени с AllMySat

Download on the App Store